{"data":{"norad_id":64493,"epoch":"2026-09-20T19:02:39.221664Z","epoch_age_seconds":106030,"freshness":"FRESH","line1":"1 64493U 25133X   26263.79350951  .00025356  00000+0  75905-3 0  9997","line2":"2 64493  53.1593 284.5986 0001307  90.6233 269.4919 15.34399078 71142","mean_motion":15.34399078,"eccentricity":0.0001307,"inclination_deg":53.1593,"raan_deg":284.5986,"arg_perigee_deg":90.6233,"mean_anomaly_deg":269.4919,"bstar":0.00075905,"rev_number":7114,"period_min":93.847814473204,"perigee_km":461.81188240922,"apogee_km":463.60007876434,"semimajor_km":6840.8429805868,"source":"CELESTRAK","updated_at":"2026-09-21T09:00:35.362478Z"}}